Regional Weather Roundup
Issued by NWS

Home | Current Version | Previous Version | Graphics & Text | Print | Product List | Glossary On
Versions: 1 2 3 4 5 6 7 8 9 10 11 12 13 14 15 16 17 18 19 20 21 22 23 24 25 26 27 28 29 30 31 32 33 34 35 36 37 38 39 40 41 42 43 44 45 46 47 48 49 50
000
ASUS43 KOAX 181110
RWRNE

WEATHER ROUNDUP FOR NEBRASKA
NATIONAL WEATHER SERVICE OMAHA NE
500 AM CST SAT NOV 18 2017

NOTES: SATELLITE DATA IS BEING USED TO AUGMENT CLOUD COVER ABOVE
       12000 FEET.
       "FAIR" INDICATES FEW OR NO CLOUDS BELOW 12,000 FEET WITH NO
       SIGNIFICANT WEATHER AND/OR OBSTRUCTIONS TO VISIBILITY.


NEZ001>004-019>022-054>056-181200-
NEBRASKA PANHANDLE

CITY           SKY/WX    TMP DP  RH WIND       PRES   REMARKS
SCOTTSBLUFF    CLEAR     32  19  58 NW14      30.09R WCI  22
ALLIANCE       CLEAR     31  23  72 NW20      30.04R WCI  19
CHADRON        CLEAR     31  24  75 W12       30.07R WCI  22
GORDON         FAIR      32  26  78 W9        30.00R WCI  24
KIMBALL        CLEAR     31  21  68 NW14G23   30.08R WCI  20
SIDNEY         CLEAR     31  23  72 NW15      30.06R WCI  20
$$

NEZ057>060-069>072-079>082-181200-
SOUTHWEST NEBRASKA

CITY           SKY/WX    TMP DP  RH WIND       PRES   REMARKS
NORTH PLATTE   MOCLDY    38  35  89 NW10      29.96R WCI  31
IMPERIAL       CLOUDY    38  34  85 NW23G33   29.98R WCI  27
LEXINGTON      CLOUDY    38  34  86 N15       29.90R WCI  29
MCCOOK         CLOUDY    38  36  92 N20G28    29.95R WCI  28
OGALLALA       PTCLDY    38  33  81 NW21G28   30.00R WCI  27
$$

NEZ005>010-023>029-035>040-094-181200-
NORTH CENTRAL NEBRASKA

CITY           SKY/WX    TMP DP  RH WIND       PRES   REMARKS
VALENTINE      MOCLDY    36  33  89 NW10      29.95R WCI  28
BROKEN BOW     CLOUDY    37  34  89 NW15      29.90R WCI  28
O`NEILL        CLOUDY    37  34  87 NW17      29.88R WCI  28
ORD            CLOUDY    38  35  89 NW14      29.85R WCI  30
THEDFORD       MOCLDY    37  35  93 NW15G25   29.95R WCI  28
$$

NEZ041-046>049-061>064-073>077-083>087-181200-
SOUTH CENTRAL NEBRASKA

CITY           SKY/WX    TMP DP  RH WIND       PRES   REMARKS
GRAND ISLAND   CLOUDY    39  36  89 N23G29    29.84R WCI  28
AURORA         CLOUDY    38  36  90 N16       29.81R WCI  30
HASTINGS       CLOUDY    38  35  89 N21       29.83R WCI  28
HEBRON         LGT RAIN  42  38  87 N18G28    29.78R
HOLDREGE       LGT RAIN  37  36  96 N21G28    29.87R WCI  26
KEARNEY        LGT RAIN  37  35  92 N20       29.88R WCI  27
YORK           CLOUDY    39  37  93 N14G22    29.80R WCI  31
$$

NEZ011>018-030>034-042>045-181200-
NORTHEAST NEBRASKA

CITY           SKY/WX    TMP DP  RH WIND       PRES   REMARKS
NORFOLK        CLOUDY    36  30  79 NW15      29.82R WCI  27
ALBION         CLOUDY    38  32  78 NW12      29.84R WCI  31
BLAIR          CLOUDY    39  36  90 N17G25    29.75R WCI  29
COLUMBUS       CLOUDY    38  34  85 NW14      29.82R WCI  30
FREMONT        CLOUDY    38  36  90 NW12      29.78R WCI  31
TEKAMAH        CLOUDY    38  34  85 N13       29.78R WCI  30
WAYNE          CLOUDY    37  34  90 NW13      29.81R WCI  28
$$

NEZ050>053-065>068-078-088>093-181200-
SOUTHEAST NEBRASKA

CITY           SKY/WX    TMP DP  RH WIND       PRES   REMARKS
LINCOLN        LGT RAIN  41  38  89 N21G28    29.77R
OMAHA EPPLEY   LGT RAIN  39  35  86 NW20G32   29.74R WCI  29
BEATRICE       LGT RAIN  41  39  93 N23G31    29.74R
FALLS CITY     RAIN      44  41  89 N17G25    29.65R
NEBRASKA CITY  LGT RAIN  41  41 100 N21G28    29.68R
PLATTSMOUTH    LGT RAIN  40  39  97 NW17G24   29.71R WCI  31
$$

NEZ044-045-051>053-067-181200-
OMAHA AREA

CITY           SKY/WX    TMP DP  RH WIND       PRES   REMARKS
OMAHA EPPLEY   LGT RAIN  39  35  86 NW20G32   29.74R WCI  29
BLAIR          CLOUDY    39  36  90 N17G25    29.75R WCI  29
FREMONT        CLOUDY    38  36  90 NW12      29.78R WCI  31
MILLARD        LGT RAIN  41  38  90 N10G18    29.75R
OFFUTT AFB     LGT RAIN  40  37  89 NW21      29.72R WCI  30
PLATTSMOUTH    LGT RAIN  40  39  97 NW17G24   29.71R WCI  31
WAHOO          CLOUDY    39  36  87 N22G30    29.77R WCI  29
$$




USA.gov is the U.S. government's official web portal to all federal, state and local government web resources and services.